{"data":{"norad_id":49730,"intl_designator":"2021-115G","name":"STARLINK-3249","alt_names":[],"object_type":"PAYLOAD","status":"ACTIVE","operator":null,"country":"US","launch_date":"2021-12-02","launch_site_code":"AFETR","launch_vehicle":null,"mission":null,"orbit_class":"UNKNOWN","rcs_meters":null,"size_class":null,"mass_kg":null,"dimensions":null,"purposes":["comms"],"wikipedia_slug":null,"has_3d_model":false,"image_url":null,"decayed_at":null,"tle_current":{"epoch":"2026-05-24T12:11:37.055328Z","epoch_age_seconds":107822,"freshness":"FRESH","line1":"1 49730U 21115G   26144.50806777 -.00000340  00000+0 -32856-5 0  9997","line2":"2 49730  53.2146 178.9506 0001124  79.4057 280.7061 15.08839676246832","mean_motion":15.08839676,"eccentricity":0.0001124,"inclination_deg":53.2146,"raan_deg":178.9506,"arg_perigee_deg":79.4057,"mean_anomaly_deg":280.7061,"bstar":-3.2856e-6,"rev_number":24683,"period_min":95.437575171506,"perigee_km":538.96680943563,"apogee_km":540.5219491697,"semimajor_km":6917.8813793027,"source":"CELESTRAK","updated_at":"2026-05-25T13:38:16.832182Z"}}}